FW3613 Weather Reports


time (UTC)temp
C
wind
direction
speed
KPH
gust
KPH
rain 1hr
cm
rain 24hr
cm
rain mn
cm
humidity
%
barometer
mb
20260509214029 23 297 3.2 14.5 0.00 0.00 0.00 22 1017.9
20260509213530 23 267 4.8 14.5 0.00 0.00 0.00 21 1018.0
20260509213025 23 293 4.8 14.5 0.00 0.00 0.00 23 1018.1
20260509212524 23 257 4.8 14.5 0.00 0.00 0.00 23 1018.2
20260509212023 23 296 6.4 12.9 0.00 0.00 0.00 26 1018.4
20260509211526 22 304 3.2 12.9 0.00 0.00 0.00 26 1018.4
20260509211023 23 257 4.8 14.5 0.00 0.00 0.00 26 1018.4
20260509210521 22 291 4.8 14.5 0.00 0.00 0.00 26 1018.5
20260509210021 22 280 1.6 16.1 0.00 0.00 0.00 27 1018.5
20260509205519 22 289 8.0 16.1 0.00 0.00 0.00 27 1018.6
20260509205019 22 307 4.8 22.5 0.00 0.00 0.00 27 1018.5
20260509204527 22 280 6.4 22.5 0.00 0.00 0.00 28 1018.7
20260509204018 22 304 8.0 17.7 0.00 0.00 0.00 28 1018.7
20260509203518 22 290 3.2 16.1 0.00 0.00 0.00 30 1018.7
20260509203017 22 305 4.8 16.1 0.00 0.00 0.00 29 1018.7
20260509202516 21 283 3.2 19.3 0.00 0.00 0.00 30 1018.7
20260509202017 21 305 8.0 19.3 0.00 0.00 0.00 29 1018.8
20260509201516 22 302 6.4 16.1 0.00 0.00 0.00 29 1018.8
20260509201015 22 320 1.6 17.7 0.00 0.00 0.00 31 1018.8
20260509200517 21 120 1.6 17.7 0.00 0.00 0.00 30 1018.8
20260509200013 21 305 3.2 9.7 0.00 0.00 0.00 30 1018.9
20260509195514 21 283 1.6 14.5 0.00 0.00 0.00 31 1019.1
20260509195015 21 297 6.4 14.5 0.00 0.00 0.00 30 1019.1
20260509194510 21 288 3.2 16.1 0.00 0.00 0.00 32 1019.2
20260509194010 21 271 4.8 16.1 0.00 0.00 0.00 31 1019.3
20260509193509 21 304 1.6 11.3 0.00 0.00 0.00 32 1019.3
20260509193008 21 293 3.2 14.5 0.00 0.00 0.00 33 1019.5
20260509192507 20 125 8.0 14.5 0.00 0.00 0.00 32 1019.5
20260509192007 20 246 4.8 14.5 0.00 0.00 0.00 33 1019.6
20260509191506 20 294 6.4 12.9 0.00 0.00 0.00 32 1019.6
20260509191010 20 291 1.6 9.7 0.00 0.00 0.00 32 1019.7
20260509190504 20 283 3.2 11.3 0.00 0.00 0.00 31 1019.6
20260509190004 20 291 4.8 11.3 0.00 0.00 0.00 32 1019.8
20260509185502 20 269 3.2 14.5 0.00 0.00 0.00 33 1019.7
20260509185001 19 309 4.8 14.5 0.00 0.00 0.00 33 1019.8
20260509184500 19 291 4.8 12.9 0.00 0.00 0.00 33 1019.8
20260509184001 19 283 3.2 9.7 0.00 0.00 0.00 33 1019.8
20260509183600 19 309 3.2 9.7 0.00 0.00 0.00 34 1019.8
20260509183059 18 312 1.6 12.9 0.00 0.00 0.00 35 1019.9
20260509182559 18 291 4.8 12.9 0.00 0.00 0.00 36 1020.0
20260509182057 18 172 3.2 16.1 0.00 0.00 0.00 36 1020.1
20260509181603 18 278 4.8 16.1 0.00 0.00 0.00 36 1020.2
20260509181056 18 321 6.4 14.5 0.00 0.00 0.00 36 1020.2
20260509180554 18 293 4.8 14.5 0.00 0.00 0.00 37 1020.2
20260509180055 17 302 8.0 14.5 0.00 0.00 0.00 37 1020.2
20260509175551 17 308 4.8 12.9 0.00 0.00 0.00 39 1020.2
20260509175051 17 301 6.4 14.5 0.00 0.00 0.00 39 1020.3
20260509174557 17 285 1.6 14.5 0.00 0.00 0.00 41 1020.3
20260509174048 17 296 1.6 9.7 0.00 0.00 0.00 43 1020.3
20260509173546 17 295 3.2 17.7 0.00 0.00 0.00 44 1020.5
20260509173050 16 301 6.4 17.7 0.00 0.00 0.00 44 1020.5
20260509172544 16 291 3.2 12.9 0.00 0.00 0.00 45 1020.4
20260509172042 16 312 3.2 12.9 0.00 0.00 0.00 45 1020.5
20260509171550 16 298 4.8 9.7 0.00 0.00 0.00 46 1020.5
20260509171042 16 302 4.8 11.3 0.00 0.00 0.00 46 1020.5
20260509170540 16 297 4.8 11.3 0.00 0.00 0.00 45 1020.5
20260509170043 15 294 4.8 11.3 0.00 0.00 0.00 46 1020.5
20260509165539 15 294 3.2 8.0 0.00 0.00 0.00 48 1020.5
20260509165037 15 296 3.2 9.7 0.00 0.00 0.00 48 1020.5
20260509164537 15 303 3.2 8.0 0.00 0.00 0.00 48 1020.5
20260509164035 15 300 3.2 8.0 0.00 0.00 0.00 47 1020.6
20260509163534 15 301 1.6 6.4 0.00 0.00 0.00 48 1020.6
20260509163033 14 310 0.0 8.0 0.00 0.00 0.00 48 1020.6
20260509162532 14 288 1.6 9.7 0.00 0.00 0.00 48 1020.7
20260509162036 14 297 3.2 9.7 0.00 0.00 0.00 49 1020.7
20260509161531 13 290 1.6 8.0 0.00 0.00 0.00 50 1020.5
20260509161031 13 294 1.6 8.0 0.00 0.00 0.00 50 1020.5
20260509160527 13 293 3.2 6.4 0.00 0.00 0.00 50 1020.5
20260509160026 13 275 0.0 4.8 0.00 0.00 0.00 52 1020.5
20260509155523 13 283 0.0 4.8 0.00 0.00 0.00 52 1020.5
20260509155022 12 293 0.0 4.8 0.00 0.00 0.00 53 1020.5
20260509154524 12 205 0.0 4.8 0.00 0.00 0.00 54 1020.5
20260509154019 12 288 0.0 4.8 0.00 0.00 0.00 54 1020.5
20260509153521 12 222 0.0 3.2 0.00 0.00 0.00 54 1020.5
20260509153025 12 293 0.0 3.2 0.00 0.00 0.00 55 1020.5
20260509152517 12 203 0.0 1.6 0.00 0.00 0.00 56 1020.5
20260509152016 12 134 0.0 1.6 0.00 0.00 0.00 59 1020.5
20260509151516 11 134 0.0 1.6 0.00 0.00 0.00 60 1020.5
20260509151015 11 134 0.0 0.0 0.00 0.00 0.00 61 1020.5
20260509150514 11 134 0.0 0.0 0.00 0.00 0.00 62 1020.5
20260509150018 11 134 0.0 0.0 0.00 0.00 0.00 62 1020.5
20260509145514 10 134 0.0 1.6 0.00 0.00 0.00 62 1020.5
20260509145014 10 115 0.0 0.0 0.00 0.00 0.00 64 1020.4
20260509144515 10 108 0.0 1.6 0.00 0.00 0.00 65 1020.5
20260509144013 10 58 0.0 1.6 0.00 0.00 0.00 66 1020.5
20260509143513 10 127 0.0 1.6 0.00 0.00 0.00 69 1020.5
20260509143019 9 127 0.0 1.6 0.00 0.00 0.00 69 1020.5
20260509142514 9 112 0.0 1.6 0.00 0.00 0.00 70 1020.5
20260509142012 8 132 0.0 1.6 0.00 0.00 0.00 71 1020.4
20260509141513 8 126 0.0 1.6 0.00 0.00 0.00 72 1020.4
20260509141012 8 126 0.0 1.6 0.00 0.00 0.00 74 1020.5
20260509140511 8 125 0.0 1.6 0.00 0.00 0.00 75 1020.4
20260509140011 7 125 0.0 1.6 0.00 0.00 0.00 75 1020.4
20260509135511 7 125 0.0 0.0 0.00 0.00 0.00 78 1020.4
20260509135015 7 125 0.0 0.0 0.00 0.00 0.00 79 1020.4
20260509134511 6 126 0.0 0.0 0.00 0.00 0.00 81 1020.4
20260509134010 6 125 0.0 0.0 0.00 0.00 0.00 81 1020.4
20260509133510 6 125 0.0 0.0 0.00 0.00 0.00 82 1020.4
20260509133010 6 125 0.0 0.0 0.00 0.00 0.00 83 1020.4
20260509132509 5 125 0.0 0.0 0.00 0.00 0.00 83 1020.2
20260509132008 5 125 0.0 0.0 0.00 0.00 0.00 85 1020.2
20260509131510 5 125 0.0 0.0 0.00 0.00 0.00 85 1020.1
20260509131007 5 126 0.0 0.0 0.00 0.00 0.00 85 1020.0
20260509130505 5 125 0.0 0.0 0.00 0.00 0.00 86 1019.9
20260509130007 5 125 0.0 0.0 0.00 0.00 0.00 85 1019.9
20260509125507 5 125 0.0 0.0 0.00 0.00 0.00 85 1019.8
20260509125002 5 125 0.0 0.0 0.00 0.00 0.00 84 1019.7
20260509124502 5 125 0.0 0.0 0.00 0.00 0.00 84 1019.7
20260509124001 5 125 0.0 0.0 0.00 0.00 0.00 84 1019.7
20260509123501 5 125 0.0 0.0 0.00 0.00 0.00 84 1019.6
20260509123100 5 125 0.0 0.0 0.00 0.00 0.00 84 1019.6
20260509122559 5 125 0.0 0.0 0.00 0.00 0.00 83 1019.6
20260509122102 5 125 0.0 0.0 0.00 0.00 0.00 83 1019.6
20260509121612 5 125 0.0 0.0 0.00 0.00 0.00 83 1019.5
20260509121058 5 125 0.0 0.0 0.00 0.00 0.00 83 1019.5
20260509120557 5 125 0.0 0.0 0.00 0.00 0.00 83 1019.5
20260509120055 6 125 0.0 0.0 0.00 0.00 0.00 82 1019.5
20260509115555 6 126 0.0 0.0 0.00 0.00 0.00 82 1019.5
20260509115057 6 125 0.0 0.0 0.00 0.00 0.00 81 1019.5
20260509114554 6 126 0.0 0.0 0.00 0.00 0.00 82 1019.3
20260509114054 6 125 0.0 0.0 0.00 0.00 0.00 81 1019.3
20260509113554 6 126 0.0 0.0 0.00 0.00 0.00 81 1019.3
20260509113058 6 125 0.0 0.0 0.00 0.00 0.00 82 1019.3
20260509112556 6 126 0.0 0.0 0.00 0.00 0.00 82 1019.3
20260509112051 6 125 0.0 0.0 0.00 0.00 0.00 82 1019.2
20260509111557 6 126 0.0 0.0 0.00 0.00 0.00 82 1019.3
20260509111049 6 125 0.0 0.0 0.00 0.00 0.00 82 1019.1
20260509110549 6 125 0.0 0.0 0.00 0.00 0.00 81 1019.1
20260509110046 6 124 0.0 0.0 0.00 0.00 0.00 80 1019.1
20260509105549 6 124 0.0 0.0 0.00 0.00 0.00 80 1019.1
20260509105046 6 124 0.0 0.0 0.00 0.00 0.00 81 1019.0
20260509104545 6 124 0.0 0.0 0.00 0.00 0.00 80 1019.1
20260509104043 6 124 0.0 0.0 0.00 0.00 0.00 79 1019.0
20260509103542 6 124 0.0 0.0 0.00 0.00 0.00 78 1018.9
20260509103041 7 124 0.0 0.0 0.00 0.00 0.00 78 1018.9
20260509102540 7 124 0.0 0.0 0.00 0.00 0.00 77 1018.8
20260509102039 7 124 0.0 0.0 0.00 0.00 0.00 77 1018.9
20260509101540 7 124 0.0 0.0 0.00 0.00 0.00 77 1018.8
20260509101037 7 124 0.0 0.0 0.00 0.00 0.00 75 1018.8
20260509100536 7 124 0.0 0.0 0.00 0.00 0.00 74 1018.8
20260509100036 7 124 0.0 0.0 0.00 0.00 0.00 75 1018.7
20260509095535 7 124 0.0 0.0 0.00 0.00 0.00 76 1018.7
20260509095033 7 124 0.0 0.0 0.00 0.00 0.00 76 1018.7
20260509094533 7 124 0.0 0.0 0.00 0.00 0.00 76 1018.6
20260509094031 7 124 0.0 0.0 0.00 0.00 0.00 75 1018.5
20260509093530 7 124 0.0 0.0 0.00 0.00 0.00 74 1018.4
20260509093030 8 124 0.0 0.0 0.00 0.00 0.00 73 1018.3
20260509092529 8 120 0.0 0.0 0.00 0.00 0.00 73 1018.3
20260509092029 8 120 0.0 0.0 0.00 0.00 0.00 73 1018.3
20260509091530 8 120 0.0 0.0 0.00 0.00 0.00 73 1018.3
20260509091028 8 120 0.0 0.0 0.00 0.00 0.00 74 1018.3
20260509090528 8 120 0.0 0.0 0.00 0.00 0.00 75 1018.3
20260509090026 8 120 0.0 0.0 0.00 0.00 0.00 74 1018.2
20260509085524 8 120 0.0 0.0 0.00 0.00 0.00 72 1018.1
20260509085024 8 120 0.0 0.0 0.00 0.00 0.00 73 1018.1
20260509084525 8 82 0.0 0.0 0.00 0.00 0.00 74 1018.1
20260509084024 8 82 0.0 0.0 0.00 0.00 0.00 74 1018.1
20260509083524 8 82 0.0 0.0 0.00 0.00 0.00 75 1018.1
20260509083028 8 186 0.0 0.0 0.00 0.00 0.00 75 1018.0
20260509082522 8 186 0.0 0.0 0.00 0.00 0.00 74 1017.9
20260509082020 8 186 0.0 0.0 0.00 0.00 0.00 72 1017.9
20260509081521 8 186 0.0 0.0 0.00 0.00 0.00 72 1017.9
20260509081018 9 186 0.0 0.0 0.00 0.00 0.00 71 1017.8
20260509080518 9 186 0.0 0.0 0.00 0.00 0.00 71 1017.9
20260509080021 9 186 0.0 0.0 0.00 0.00 0.00 71 1017.8
20260509075521 9 186 0.0 0.0 0.00 0.00 0.00 72 1017.8
20260509075016 9 186 0.0 0.0 0.00 0.00 0.00 73 1017.7
20260509074513 9 186 0.0 0.0 0.00 0.00 0.00 74 1017.7
20260509074011 9 186 0.0 0.0 0.00 0.00 0.00 73 1017.6
20260509073510 9 186 0.0 0.0 0.00 0.00 0.00 72 1017.4
20260509073009 10 186 0.0 0.0 0.00 0.00 0.00 70 1017.3
20260509072509 10 186 0.0 0.0 0.00 0.00 0.00 69 1017.3
20260509072007 10 186 0.0 0.0 0.00 0.00 0.00 69 1017.2
20260509071506 10 292 0.0 0.0 0.00 0.00 0.00 69 1017.1
20260509071006 10 292 0.0 0.0 0.00 0.00 0.00 69 1017.0
20260509070504 10 293 0.0 0.0 0.00 0.00 0.00 69 1016.9
20260509070003 10 293 0.0 0.0 0.00 0.00 0.00 69 1016.8
20260509065501 10 292 0.0 0.0 0.00 0.00 0.00 67 1016.7
20260509065002 10 293 0.0 0.0 0.00 0.00 0.00 68 1016.7
20260509064605 10 293 0.0 0.0 0.00 0.00 0.00 67 1016.7
20260509064100 10 293 0.0 0.0 0.00 0.00 0.00 67 1016.6
20260509063558 11 293 0.0 0.0 0.00 0.00 0.00 67 1016.4
20260509063104 11 293 0.0 0.0 0.00 0.00 0.00 68 1016.4
20260509062556 11 293 0.0 0.0 0.00 0.00 0.00 68 1016.3
20260509062055 11 293 0.0 0.0 0.00 0.00 0.00 68 1016.3
20260509061554 11 293 0.0 0.0 0.00 0.00 0.00 65 1016.2
20260509061052 11 293 0.0 0.0 0.00 0.00 0.00 64 1016.2
20260509060550 11 293 0.0 0.0 0.00 0.00 0.00 63 1016.1
20260509060055 12 293 0.0 0.0 0.00 0.00 0.00 63 1016.0
20260509055548 12 293 0.0 0.0 0.00 0.00 0.00 62 1016.0
20260509055047 12 293 0.0 0.0 0.00 0.00 0.00 61 1015.9
20260509054549 12 293 0.0 0.0 0.00 0.00 0.00 61 1015.8
20260509054048 12 293 0.0 0.0 0.00 0.00 0.00 59 1015.7
20260509053547 13 293 0.0 0.0 0.00 0.00 0.00 58 1015.7
20260509053112 13 293 0.0 0.0 0.00 0.00 0.00 57 1015.6
20260509052547 13 292 0.0 0.0 0.00 0.00 0.00 55 1015.6
20260509052047 13 293 0.0 0.0 0.00 0.00 0.00 57 1015.5
20260509051546 13 293 0.0 0.0 0.00 0.00 0.00 57 1015.4
20260509051046 13 293 0.0 0.0 0.00 0.00 0.00 57 1015.4
20260509050546 13 293 0.0 0.0 0.00 0.00 0.00 56 1015.3
20260509050046 13 293 0.0 0.0 0.00 0.00 0.00 54 1015.3
20260509045547 13 293 0.0 0.0 0.00 0.00 0.00 54 1015.3
20260509045046 14 293 0.0 0.0 0.00 0.00 0.00 53 1015.2
20260509044546 14 293 0.0 0.0 0.00 0.00 0.00 52 1015.1
20260509044045 15 293 0.0 0.0 0.00 0.00 0.00 52 1015.0
20260509043546 15 293 0.0 0.0 0.00 0.00 0.00 52 1014.9
20260509043102 15 292 0.0 0.0 0.00 0.00 0.00 50 1014.8
20260509042545 15 292 0.0 0.0 0.00 0.00 0.00 49 1014.7
20260509042048 15 294 0.0 0.0 0.00 0.00 0.00 49 1014.6
20260509041557 15 294 0.0 0.0 0.00 0.00 0.00 47 1014.6
20260509041146 15 294 0.0 0.0 0.00 0.00 0.00 47 1014.5
20260509040546 15 294 0.0 0.0 0.00 0.00 0.00 48 1014.4
20260509040050 16 292 0.0 0.0 0.00 0.00 0.00 47 1014.3
20260509035544 16 293 0.0 0.0 0.00 0.00 0.00 49 1014.2
20260509035044 16 293 0.0 0.0 0.00 0.00 0.00 46 1014.1
20260509034559 16 294 0.0 0.0 0.00 0.00 0.00 48 1014.0
20260509034043 16 294 0.0 0.0 0.00 0.00 0.00 47 1014.1
20260509033544 17 294 0.0 0.0 0.00 0.00 0.00 45 1014.0
20260509033043 17 294 0.0 0.0 0.00 0.00 0.00 44 1014.0
20260509032543 17 294 0.0 0.0 0.00 0.00 0.00 43 1013.9
20260509032042 18 294 0.0 0.0 0.00 0.00 0.00 42 1013.9
20260509031542 18 294 0.0 0.0 0.00 0.00 0.00 41 1013.8
20260509031042 19 293 0.0 0.0 0.00 0.00 0.00 40 1013.7
20260509030545 20 294 0.0 0.0 0.00 0.00 0.00 38 1013.6
20260509030042 20 294 0.0 0.0 0.00 0.00 0.00 38 1013.6
20260509025543 21 294 0.0 0.0 0.00 0.00 0.00 37 1013.5
20260509025041 21 293 0.0 0.0 0.00 0.00 0.00 34 1013.5
20260509024541 21 293 0.0 0.0 0.00 0.00 0.00 33 1013.5
20260509024041 22 294 0.0 0.0 0.00 0.00 0.00 32 1013.5
20260509023543 22 294 0.0 1.6 0.00 0.00 0.00 28 1013.4
20260509023040 22 294 0.0 4.8 0.00 0.00 0.00 27 1013.4
20260509022540 22 294 1.6 4.8 0.00 0.00 0.00 26 1013.4
20260509022040 22 288 0.0 3.2 0.00 0.00 0.00 25 1013.2
20260509021539 22 288 0.0 4.8 0.00 0.00 0.00 26 1013.2
20260509021041 22 288 0.0 4.8 0.00 0.00 0.00 25 1013.1
20260509020542 23 289 0.0 3.2 0.00 0.00 0.00 25 1013.2
20260509020050 23 291 0.0 4.8 0.00 0.00 0.00 24 1013.1
20260509015538 23 290 0.0 4.8 0.00 0.00 0.00 24 1013.1
20260509015037 23 279 0.0 1.6 0.00 0.00 0.00 24 1013.1
20260509014537 23 279 0.0 4.8 0.00 0.00 0.00 23 1013.1
20260509014036 23 279 1.6 9.7 0.00 0.00 0.00 22 1013.1
20260509013536 23 290 3.2 9.7 0.00 0.00 0.00 21 1013.1
20260509013047 23 279 1.6 11.3 0.00 0.00 0.00 22 1013.1
20260509012635 23 294 1.6 11.3 0.00 0.00 0.00 22 1013.1
20260509012035 23 308 1.6 11.3 0.00 0.00 0.00 22 1013.1
20260509011536 23 293 1.6 11.3 0.00 0.00 0.00 22 1013.2
20260509011035 23 304 1.6 8.0 0.00 0.00 0.00 23 1013.2
20260509010536 23 19 0.0 9.7 0.00 0.00 0.00 21 1013.1
20260509010048 23 300 3.2 9.7 0.00 0.00 0.00 22 1013.2
20260509005534 23 293 0.0 8.0 0.00 0.00 0.00 22 1013.3
20260509005034 23 141 1.6 9.7 0.00 0.00 0.00 22 1013.4
20260509004534 23 292 1.6 9.7 0.00 0.00 0.00 22 1013.4
20260509004034 23 303 3.2 6.4 0.00 0.00 0.00 22 1013.5
20260509003534 23 283 0.0 3.2 0.00 0.00 0.00 21 1013.4
20260509003033 23 280 1.6 6.4 0.00 0.00 0.00 20 1013.4
20260509002532 23 291 1.6 6.4 0.00 0.00 0.00 20 1013.5
20260509002033 24 294 1.6 8.0 0.00 0.00 0.00 20 1013.6
20260509001533 24 304 1.6 8.0 0.00 0.00 0.00 20 1013.5
20260509001034 24 282 1.6 6.4 0.00 0.00 0.00 20 1013.5
20260509000532 23 293 1.6 8.0 0.00 0.00 0.00 21 1013.5
20260509000032 23 298 1.6 9.7 0.00 0.00 0.00 21 1013.5
20260508235633 24 288 3.2 9.7 0.00 0.00 0.00 19 1013.6
20260508235032 24 311 1.6 8.0 0.00 0.00 0.00 20 1013.5
20260508234535 24 308 1.6 6.4 0.00 0.00 0.00 20 1013.5
20260508234032 24 288 1.6 6.4 0.00 0.00 0.00 21 1013.5
20260508233533 23 285 0.0 3.2 0.00 0.00 0.00 21 1013.6
20260508233031 23 285 0.0 6.4 0.00 0.00 0.00 19 1013.6
20260508232531 23 288 1.6 8.0 0.00 0.00 0.00 19 1013.7
20260508232033 23 300 1.6 8.0 0.00 0.00 0.00 19 1013.6
20260508231530 23 276 3.2 8.0 0.00 0.00 0.00 19 1013.6
20260508231032 23 297 1.6 8.0 0.00 0.00 0.00 19 1013.7
20260508230531 23 295 1.6 8.0 0.00 0.00 0.00 19 1013.7
20260508230038 24 294 1.6 11.3 0.00 0.00 0.00 19 1013.7
20260508225530 23 306 4.8 12.9 0.00 0.00 0.00 19 1013.7
20260508225030 24 304 4.8 12.9 0.00 0.00 0.00 19 1013.9
20260508224537 24 294 3.2 11.3 0.00 0.00 0.00 20 1014.0
20260508224029 24 291 4.8 14.5 0.00 0.00 0.00 20 1014.0
20260508223529 24 298 3.2 14.5 0.00 0.00 0.00 20 1014.1
20260508223031 24 288 3.2 12.9 0.00 0.00 0.00 20 1014.0
20260508222529 24 300 4.8 12.9 0.00 0.00 0.00 20 1014.2
20260508222028 25 291 3.2 9.7 0.00 0.00 0.00 19 1014.2
20260508221540 25 288 0.0 9.7 0.00 0.00 0.00 21 1014.3
20260508221026 24 288 4.8 9.7 0.00 0.00 0.00 22 1014.4
20260508220525 24 274 4.8 9.7 0.00 0.00 0.00 22 1014.4
20260508220028 23 288 3.2 9.7 0.00 0.00 0.00 23 1014.6
20260508215524 23 290 3.2 12.9 0.00 0.00 0.00 23 1014.6
20260508215024 23 282 6.4 12.9 0.00 0.00 0.00 23 1014.7
20260508214524 23 288 4.8 12.9 0.00 0.00 0.00 23 1014.8